SCP
-0 0 0 0 0 0 0 0 0 0 0 0 0 0 0 0 0 0 0 0 0 0 0 0 0 0 0 0 0 0 0 0 0 0 0 0 0 0 0 0 0 0 0
0 0 0 0 0 0 0 0 0 0 0 0 0 0 0 0 0 0 0 0 0 0 0 0 0 0 0 0 0 0 0 0 0 0 0 0 0 0 0 0 0 0 0
0 0 0 0 0 0 0 0 0 0 0 0 0 0 0 0 0 0 0 0 0 0 0 0 0 0 0 0 0 0 0 0 0 0 0 0 0 0 0 0 0 0 0
0 0 0 0 0 0 0 0 0 0 0 0 0 0 0 0 0 0 0 0 0 0 0 0 0 0 0 0 0 0 0 0 0 0 0 0 0 0 0 0 0 0 0
0 0 0 0 0 0 0 0 0 0 0 0 0 0 0 0 0 0 0 0 0 0 0 0 0 0 0 0 0 0 0 0 0 0 0 0 0 0 0 0 0 0 0
0 0 0 0 0 0 0 0 0 0 0 0 0 0 0 0 0 0 0 0 0 0 0 0 0 0 0 0 0 0 0 0 0 0 0 0 0 0 0 0 0 0 0
0 0 0 0 0 0 0 0 0 0 0 0 0 0 0 0 0 0 0 0 0 0 0 0 0 0 0 0 0 0 0 0 0 0 0 0 0 0 0 0 0 0 0
0 0 0 0 0 0 0 0 0 0 0 0 0 0 0 0 0 0 0 0 0 0 0 0 0 0 0 0 0 0 0 0 0 0 0 0 0 0 0 0 0 0 0
0 0 0 0 0 0 0 0 0 0 0 0 0 0 0 0 0 0 0 0 0 0 0 0 0 0 0 0 0 0 0 0 0 0 0 0 0 0 0 0 0 0 0
0 0 0 0 0 0 0 0 0 0 0 0 0 0 0 0 0 0 0 0 0 0 0 0 0 0 0 0 0 0 0 0 0 0 0 0 0 0 0 0 0 0 0
0 0 0 0 0 0 0 0 0 0 0 0 0 0 0 0 0 0 0 0 0 0 0 0 0 0 0 0 0 0 0 0 0 0 0 0 0 0 0 0 0 0 0
0 0 0 0 0 0 0 0 0 0 0 0 0 0 0 0 0 0 0 0 0 0 0 0 0 0 0 0 0 0 0 0 0 0 0 0 0 0 0 0 0 0 0
0 0 0 0 0 0 0 0 0 0 0 0 0 0 0 0 0 0 0 0 0 0 0 0 0 0 0 0 0 0 0 0 0 0 0 0 0 0 0 0 0 0 0
0 0 0 0 0 0 0 0 0 0 0 0 0 0 0 0 0 0 0 0 0 0 0 0 0 0 0 0 0 0 0 0 0 0 0 0 0 0 0 0 0 0 0
0 0 0 0 0 0 0 0 0 0 0 0 0 0 0 0 0 0 0 0 0 0 0 0 0 0 0 0 0 0 0 0 0 0 0 0 0 0 0 0 0 0 0
0 0 0 0 0 0 0 0 0 0 0 0 0 0 0 0 0 0 0 0 0 0 0 0 0 0 0 0 0 0 0 0 0 0 0 0 0 0 0 0 0 0 0
0 0 0 0 0 0 0 0 0 0 0 0 0 0 0 0 0 0 0 0 0 0 0 0 0 0 0 0 0 0 0 0 0 0 0 0 0 0 0 0 0 0 0
0 0 0 0 0 0 0 0 0 0 0 0 0 0 0 0 0 0 0 0 0 0 0 0 0 0 0 0 0 0 0 0 1 0 0 0 0 0 0 0 0 0 0
0 0 0 0 0 0 0 0 0 0 0 0 0 0 0 0 0 0 0 0 0 0 0 0 0 0 0 0 0 0 0 0 0 0 0 0 0 0 0 0 0 0 0
0 0 0 0 0 0 0 0 0 0 0 0 0 0 0 0 0 0 0 0 0 0 0 0 0 0 0 0 0 0 0 0 0 0 0 0 0 0 0 0 0 0 0
0 0 0 0 0 0 0 0 0 0 0 0 0 0 0 0 0 0 0 0 0 0 0 0 0 0 0 0 0 0 0 0 0 0 0 0 0 0 0 0 0 0 0
0 0 0 0 0 0 0 0 0 0 0 0 0 0 0 0 0 0 0 0 0 0 0 0 0 0 0 0 0 0 0 0 0 0 0 0 0 0 0 0 0 0 0
0 0 0 0 0 0 0 0 0 0 0 0 0 0 0 0 0 0 0 0 0 0 0 0 0 0 0 0 0 0 0 0 0 0 0 0 0 0 0 0 0 0 0
0 0 0 0 0 0 0 0 0 0 0 0 0 0 0 0 0 0 0 0 0 0 0 0 0 0 0 0 0 0 0 0 0 0 0 0 0 0 0 0 0 0 0
0 0 0 0 0 0 0 0 0 0 0 0 0 0 0 0 0 0 0 0 0 0 0 0 0 0 0 0 0 0 0 0 0 0 0 0 0 0 0 0 0 0 0
0 0 0 0 0 0 0 0 0 0 0 0 0 0 0 0 0 0 0 0 0 0 0 0 0 0 0 0 0 0 0 0 0 0 0 0 0 0 0 0 0 0 0
Wind_Speed
0 1 5 7 9 9 10 11 11 12 12 11 12 12 12 12 13 13 13 13 13 13 13 13 13 13 13 13 13 13 13 13 13 13 12 12 11 11 10 9 8 5 8
3 2 6 7 8 9 10 10 11 11 12 11 12 12 12 12 12 12 12 12 13 12 12 12 12 13 13 13 12 12 12 12 13 13 12 10 11 11 10 10 9 6 9
5 3 4 8 9 9 10 10 11 11 12 12 12 12 12 12 12 12 12 12 12 12 12 12 12 12 12 12 12 12 12 11 12 12 11 5 6 10 11 10 10 10 10
6 4 4 8 9 10 10 10 10 11 11 11 11 11 12 12 11 11 11 11 11 11 12 12 12 12 12 12 11 11 11 11 11 10 6 5 5 10 10 10 10 10 11
5 3 5 9 9 10 10 10 10 10 11 11 11 11 12 12 11 11 11 11 11 11 11 11 11 11 11 11 11 11 11 11 11 8 5 4 4 8 10 10 10 10 10
5 4 5 9 9 9 10 10 10 10 10 10 11 11 11 12 11 11 11 10 10 10 10 10 11 11 11 11 11 11 11 11 8 5 4 4 3 8 10 10 10 10 10
5 3 5 9 9 9 10 10 9 10 10 11 11 11 11 11 11 11 10 9 9 9 9 10 10 10 10 10 10 10 10 10 6 4 4 3 5 9 10 10 9 10 10
7 4 4 8 9 9 9 9 9 9 10 10 10 10 10 10 10 9 9 9 9 9 9 9 9 9 9 9 9 10 10 9 7 5 4 3 7 9 9 9 10 10 10
6 5 3 3 5 7 7 8 8 8 9 9 9 9 10 10 9 9 8 8 8 8 8 8 9 9 9 9 9 10 10 10 5 3 4 3 7 9 9 9 9 10 10
5 4 4 3 2 2 3 6 7 7 7 8 8 8 9 9 8 8 7 7 8 8 8 8 8 9 9 10 10 10 10 8 4 3 2 4 8 8 8 9 9 9 9
4 4 4 3 2 2 2 4 4 5 5 6 5 7 6 3 3 4 5 7 8 8 8 8 7 8 9 9 10 10 8 4 4 3 2 6 8 8 9 9 9 8 8
4 4 4 4 3 2 2 2 1 2 2 3 2 3 2 2 2 3 4 6 7 7 6 6 7 7 6 4 6 7 3 4 3 3 3 7 8 9 9 9 9 8 8
4 4 4 4 3 2 1 2 1 1 1 2 3 3 3 2 2 2 2 2 3 5 3 4 5 3 3 3 3 3 3 3 2 2 4 7 8 9 9 9 9 9 9
5 4 4 4 3 2 2 2 2 2 1 2 2 3 3 2 2 2 1 1 2 1 2 2 2 2 3 3 3 4 4 3 2 2 3 8 8 9 10 10 9 9 8
5 5 4 4 4 3 3 2 3 2 2 2 2 2 4 3 2 1 1 1 1 1 2 2 2 2 3 3 3 4 3 3 3 3 3 7 8 9 9 8 8 8 8
5 5 5 5 4 4 3 3 2 2 2 3 2 3 4 3 2 2 2 2 1 1 1 1 2 2 2 3 3 3 3 2 3 3 3 4 7 8 8 7 7 7 8
6 5 5 6 5 5 4 3 3 2 3 2 2 3 3 3 3 3 2 2 1 1 2 2 3 3 3 3 3 2 2 2 2 3 3 2 3 5 7 7 7 7 7
5 5 5 6 5 5 4 3 2 2 3 2 2 2 3 3 3 3 2 1 1 2 2 2 2 3 3 2 2 1 2 2 2 2 2 2 2 2 4 6 6 6 6
6 5 5 5 5 4 4 3 3 2 2 2 2 2 2 3 3 3 2 1 2 2 2 2 2 2 2 2 1 1 1 1 1 2 2 2 1 2 2 3 5 5 5
5 5 5 4 4 4 3 3 2 2 2 2 2 2 2 2 3 3 2 2 2 2 2 2 2 2 1 1 2 2 2 1 1 1 1 1 1 1 1 2 2 3 4
5 5 5 4 3 3 3 2 2 1 1 1 1 2 3 3 3 3 3 2 2 2 2 2 2 2 2 2 3 3 3 3 2 1 1 1 1 1 1 1 1 1 2
6 6 5 5 4 4 3 3 3 2 1 1 1 1 2 3 3 3 3 2 2 2 2 2 2 1 1 1 2 2 2 3 3 2 1 1 0 1 1 1 1 1 1
6 7 6 5 5 4 4 3 2 3 2 2 1 1 1 2 3 3 3 3 2 2 2 1 2 2 1 1 1 3 2 1 2 3 2 1 1 0 0 0 1 1 1
7 6 6 6 5 4 5 5 5 3 2 2 2 1 1 2 2 3 3 3 3 2 2 1 2 2 2 1 1 0 1 3 2 1 3 2 1 0 0 1 1 1 1
6 5 5 5 5 4 4 5 5 3 2 2 1 1 1 1 1 2 3 3 2 2 2 2 2 2 2 2 1 0 1 1 1 2 1 2 2 2 0 1 1 1 1
4 4 4 5 5 4 5 5 5 5 4 3 2 2 1 0 1 1 2 2 2 2 2 2 2 2 2 2 1 1 2 1 1 2 1 1 1 2 1 0 1 1 1
Wind_Direction
250 240 89 87 84 78 73 73 72 69 75 82 85 86 86 86 83 81 81 81 79 77 76 75 74 73 73 77 78 78 77 77 80 82 86 90 94 97 96 94 91 95 105
151 128 97 94 91 84 79 79 77 77 77 80 84 84 84 86 87 85 83 81 80 78 78 77 76 74 72 73 76 77 76 77 78 78 80 85 90 92 92 91 90 94 99
124 113 102 100 96 90 85 83 82 81 80 83 85 84 84 85 86 88 86 84 82 80 78 77 77 76 73 72 74 75 74 78 79 75 74 71 83 88 90 91 91 92 92
127 122 111 107 102 96 90 86 84 84 83 85 85 86 84 83 85 87 87 85 84 82 79 77 76 75 73 71 70 72 74 77 79 74 65 62 74 86 87 89 91 90 88
122 124 119 110 105 103 98 93 89 88 87 87 88 85 84 83 85 88 90 88 85 84 81 79 76 75 72 71 69 68 71 74 73 70 62 59 64 85 86 85 85 88 90
129 131 124 115 110 107 104 99 96 93 90 89 88 88 86 85 85 88 88 86 85 84 83 81 78 75 72 71 69 67 67 70 66 64 62 59 65 85 88 85 85 86 90
137 136 129 120 115 109 106 104 100 96 93 93 92 91 90 89 89 88 86 85 85 84 83 80 77 74 70 68 69 67 65 67 71 67 59 60 76 87 88 87 86 88 89
142 141 132 127 121 114 109 107 104 101 98 98 95 93 94 91 89 88 85 83 84 83 80 77 74 71 69 68 70 71 65 66 74 71 60 64 85 89 90 89 88 88 88
134 129 127 132 126 123 120 115 112 110 107 104 100 96 95 92 91 87 83 83 83 79 76 72 67 66 68 68 70 71 67 69 66 63 71 69 85 90 93 92 90 87 84
132 135 143 137 125 127 128 125 123 118 113 110 105 98 93 90 88 83 77 78 83 83 79 72 67 66 67 65 66 69 67 65 58 53 59 77 85 91 92 94 91 89 86
131 144 153 150 146 145 155 135 125 120 113 110 107 103 93 74 69 72 71 77 83 83 81 75 69 65 64 61 61 61 62 55 53 49 60 79 82 86 89 89 89 89 87
147 154 159 160 162 163 157 123 113 111 104 101 101 101 93 82 68 75 64 70 73 74 70 70 69 63 59 53 57 59 57 54 51 50 68 81 84 84 85 86 87 86 83
148 145 153 158 159 153 135 139 130 112 106 102 108 113 100 84 68 57 48 47 49 51 43 49 51 46 50 61 63 61 57 57 50 44 59 78 83 85 84 82 82 79 77
142 145 155 154 144 143 137 142 138 131 126 121 125 121 114 100 79 65 58 43 35 32 40 43 54 49 59 72 79 75 60 56 53 46 56 72 78 81 81 80 79 77 74
151 151 151 147 146 142 125 128 125 137 137 131 124 123 122 116 109 96 77 59 42 44 51 48 58 64 68 71 78 85 78 67 62 57 52 68 74 75 79 81 82 81 79
158 156 145 144 151 135 126 126 129 129 124 114 119 127 122 122 123 112 86 72 53 42 52 65 79 75 67 78 76 79 88 80 74 69 55 56 62 67 73 76 78 81 82
162 153 151 150 142 136 135 132 122 122 112 111 122 125 126 128 127 119 105 87 74 65 65 63 60 61 65 70 70 75 82 80 80 75 65 51 46 59 67 72 73 79 85
149 142 146 148 140 138 135 126 113 114 110 115 123 121 124 126 122 114 107 102 91 78 71 74 66 65 57 62 60 57 73 83 86 81 72 61 46 41 50 63 69 73 81
148 146 141 138 143 140 134 119 110 111 105 111 112 112 115 118 116 114 112 111 98 82 72 81 68 82 75 59 64 56 53 78 102 99 80 80 77 61 45 48 53 63 74
145 142 135 132 133 129 113 96 79 74 81 84 101 116 119 115 116 114 108 100 95 85 64 64 70 58 82 81 70 45 17 25 47 85 111 90 79 81 69 48 32 35 57
144 139 139 138 138 128 120 125 120 121 123 95 105 116 120 113 113 113 110 104 101 104 106 94 91 67 49 62 68 28 4 13 30 37 64 90 77 80 84 73 55 31 24
154 150 148 152 152 152 157 158 154 152 146 138 124 91 112 121 124 125 122 122 118 107 88 84 92 89 39 57 106 86 16 355 357 9 25 95 108 84 81 94 78 67 49
160 165 163 168 165 161 148 125 101 72 53 52 61 89 127 136 131 130 135 130 126 124 132 132 118 119 122 357 96 131 134 220 310 337 353 16 21 86 155 127 116 121 92
177 174 166 166 163 157 144 140 143 147 162 193 185 174 154 143 138 138 144 141 141 141 146 156 122 124 128 137 339 51 149 157 149 313 332 341 343 341 229 160 138 140 119
174 173 168 160 162 156 150 150 146 145 170 167 144 135 143 143 151 148 148 149 152 154 162 156 133 126 130 150 168 146 75 68 115 142 271 317 339 324 300 208 181 155 141
164 155 162 159 164 161 157 154 155 159 159 144 149 161 171 173 191 190 162 163 168 167 177 177 163 157 155 144 152 149 146 149 175 152 188 252 282 302 326 308 199 184 170